Location: ??
(35.5052°N, 139.7262°E)
Time: 02:43:35
(UTC+00:00)

Cosmos 1933 - Pass Details

Date: 20 June 2021
Orbit: 547 x 562 km, 82.5° (Epoch: 26 July)

Event Time Altitude Azimuth Distance (km) Brightness Sun altitude
Rises 17:02:59 0° 351° (N) 2,756 7.6 -22.4°
Reaches altitude 10° 17:05:10 10° 350° (N) 1,857 6.6 -22.1°
Maximum altitude 17:09:15 75° 265° (W) 586 3.2 -21.6°
Enters shadow 17:09:28 72° 233° (SW) 593 3.2 -21.6°
